Flag for Colombia Weather past 2 weeks in Cúcuta, Colombia

Now
72 °F

Passing clouds.


Feels Like: 69 °F
Forecast: 69 / 93 °F
Wind: N/A

Location: San Antonio Del Tachira Airport

Current Time: Mar 6, 2015 at 5:08:54 AM

Latest Report: Mar 6, 2015 at 4:00 AM


Visibility: N/A

Pressure: 29.92 "Hg

Humidity: 88%

Dew point: 68 °F

Location of CúcutaLocation

Historic Weather in Cúcuta — Graph

°F

Cúcuta temperature yesterday

Maximum temperature yesterday: 93 °F (at 2:00 PM)
Minimum temperature yesterday: 72 °F (at 7:00 AM)
Average temperature yesterday: 82 °F

Past Weeks' High & Low Weather Summary

 TemperatureHumidityPressure
High95 °F (Feb 19, 2:00 PM)100% (Feb 19, 9:00 AM)30.07 "Hg (Feb 19, 9:00 AM)
Low68 °F (Feb 21, 6:00 AM)32% (Feb 26, 4:00 PM)29.83 "Hg (Feb 25, 4:00 PM)
Average81 °F69%29.94 "Hg
* Reported Feb 19 4:00 AM — Mar 6 4:00 AM, Cúcuta, Weather by CustomWeather, © 2015

Note: Actual official high and low records may vary slightly from our data, if they occured in-between our weather recording intervals... More about our weather records

Advertising

Cúcuta weather history for previous 24 hours

 ConditionsComfort  
Time TempWeatherWind HumidityBarometerVisibility
4:00 AM
Fri, Mar 6
72 °FPassing clouds.N/A88%29.92 "HgN/A
1:00 AM75 °FPassing clouds.N/A83%29.95 "HgN/A
10:00 PM
Thu, Mar 5
77 °FPassing clouds.N/A79%29.98 "HgN/A
9:00 PM79 °FPassing clouds.N/A74%29.95 "HgN/A
8:00 PM81 °FPassing clouds.N/A70%29.92 "HgN/A
7:00 PM82 °FPassing clouds.N/A70%29.89 "HgN/A
6:00 PM86 °FPassing clouds.N/A59%29.89 "HgN/A
5:00 PM88 °FScattered clouds.N/A52%29.89 "HgN/A
4:00 PM91 °FScattered clouds.N/A49%29.83 "HgN/A
3:00 PM93 °FScattered clouds.N/A47%29.83 "HgN/A
2:00 PM93 °FScattered clouds.N/A36%29.86 "HgN/A
1:00 PM91 °FPassing clouds.N/A38%29.92 "HgN/A
12:00 PM88 °FScattered clouds.N/A43%29.92 "HgN/A
11:00 AM86 °FFog.N/A49%29.95 "Hg5 mi
10:00 AM81 °FFog.N/A62%29.98 "Hg4 mi
9:00 AM79 °FFog.N/A74%30.01 "Hg4 mi
8:00 AM75 °FFog.N/A83%29.98 "Hg4 mi
7:00 AM72 °FFog.N/A94%29.98 "Hg4 mi
6:00 AM75 °FFog.N/A83%29.98 "Hg4 mi
5:00 AM73 °FPassing clouds.N/A83%29.95 "HgN/A
Weather by CustomWeather, © 2015

See weather overviewHow to use our weather pages